Covington, KY

6:12 PM EDT on May 22, 2018 (GMT -0400)
Cincinnati-Northern KY International

Weather History for KCVG - May, 2013

Change the Weather History Date:

Saturday, May 18, 2013

  Actual Average Record
Temperature  
Mean Temperature 72 °F 64 °F  
Max Temperature 79 °F 74 °F 93 °F (1962)
Min Temperature 64 °F 54 °F 35 °F (1973)
Degree Days  
Heating Degree Days 0 4  
Month to date heating degree days 69 92  
Since 1 July heating degree days 4957 4926  
Cooling Degree Days 7 3  
Month to date cooling degree days 37 30  
Year to date cooling degree days 60 48  
Growing Degree Days 22 (Base 50)    
Moisture  
Dew Point 65 °F    
Average Humidity 81    
Maximum Humidity 100    
Minimum Humidity 62    
Precipitation  
Precipitation 0.07 in 0.15 in 1.58 in (1929)
Month to date precipitation 4.30 2.86  
Year to date precipitation 16.96 16.52  
Snow  
Snow 0.00 in 0.00 in 0.00 in ()
Month to date snowfall 0.0 0.0  
Since 1 July snowfall 25.2 22.1  
Snow Depth 0.00 in    
Sea Level Pressure  
Sea Level Pressure 30.01 in    
Wind  
Wind Speed 5 mph (East)    
Max Wind Speed 15 mph    
Max Gust Speed 17 mph    
Visibility 8 miles    
Events Rain    
T = Trace of Precipitation, MM = Missing Value Source: NWS Daily Summary

Daily Weather History Graph

Daily Weather History Graph

Search for Another Location

Airport or City:

Astronomy

May. 18, 2013 Rise Set
Actual Time 6:23 AM EDT 8:47 PM EDT
Civil Twilight 5:52 AM EDT 9:18 PM EDT
Nautical Twilight 5:15 AM EDT 9:55 PM EDT
Astronomical Twilight 4:33 AM EDT 10:37 PM EDT
Moon 1:53 PM EDT (5/18) 2:11 AM EDT (5/18)
Length of Visible Light 15h 25m
Length of Day
14h 24m
First Quarter, 55% of the Moon is Illuminated
May 18
First Quarter
May 25
Full
May 31
Last Quarter
Jun 8
New
Jun 16
First Quarter

Hourly Weather History & Observations

Time (EDT) Temp. Dew Point Humidity Pressure Visibility Wind Dir Wind Speed Gust Speed Precip Events Conditions
12:52 AM 66.0 °F 64.0 °F 93% 30.04 in 7.0 mi East 3.5 mph - 0.00 in   Overcast
1:52 AM 66.0 °F 63.0 °F 90% 30.02 in 7.0 mi ESE 6.9 mph - N/A   Overcast
2:52 AM 66.0 °F 63.0 °F 90% 30.01 in 7.0 mi East 4.6 mph - N/A   Overcast
3:52 AM 64.9 °F 64.0 °F 97% 30.02 in 7.0 mi ENE 3.5 mph - N/A   Overcast
4:52 AM 64.9 °F 64.0 °F 97% 30.03 in 6.0 mi Calm Calm - N/A   Overcast
5:52 AM 64.0 °F 64.0 °F 100% 30.03 in 5.0 mi Calm Calm - 0.01 in Rain Light Rain
6:52 AM 64.9 °F 64.0 °F 97% 30.04 in 5.0 mi Calm Calm - 0.05 in Rain Light Rain
7:52 AM 66.0 °F 64.9 °F 96% 30.04 in 5.0 mi NNE 4.6 mph - 0.01 in   Overcast
8:27 AM 64.4 °F 64.4 °F 100% 30.07 in 2.5 mi East 5.8 mph - N/A   Overcast
8:52 AM 66.0 °F 64.9 °F 96% 30.06 in 2.5 mi East 6.9 mph - N/A   Overcast
9:52 AM 66.9 °F 64.9 °F 93% 30.05 in 4.0 mi ENE 6.9 mph - 0.00 in   Overcast
10:52 AM 66.9 °F 64.9 °F 93% 30.05 in 6.0 mi NE 5.8 mph - N/A   Overcast
11:52 AM 71.1 °F 66.9 °F 87% 30.04 in 6.0 mi East 4.6 mph - N/A   Overcast
12:52 PM 73.0 °F 66.0 °F 79% 30.02 in 8.0 mi East 8.1 mph - N/A   Mostly Cloudy
1:52 PM 75.9 °F 64.9 °F 69% 30.01 in 10.0 mi ESE 5.8 mph - N/A   Mostly Cloudy
2:52 PM 78.1 °F 64.9 °F 64% 29.99 in 10.0 mi Variable 3.5 mph - N/A   Mostly Cloudy
3:52 PM 75.9 °F 66.0 °F 71% 29.98 in 9.0 mi East 11.5 mph - N/A   Mostly Cloudy
4:52 PM 75.0 °F 62.1 °F 64% 29.96 in 10.0 mi ESE 6.9 mph - N/A   Mostly Cloudy
5:52 PM 73.9 °F 64.0 °F 71% 29.97 in 10.0 mi East 5.8 mph - N/A   Mostly Cloudy
6:52 PM 75.0 °F 64.0 °F 69% 29.96 in 10.0 mi Calm Calm - N/A   Mostly Cloudy
7:52 PM 71.1 °F 64.9 °F 81% 29.98 in 10.0 mi SE 10.4 mph - N/A   Mostly Cloudy
8:52 PM 70.0 °F 64.9 °F 84% 29.97 in 10.0 mi ESE 4.6 mph - N/A   Mostly Cloudy
9:52 PM 66.9 °F 64.9 °F 93% 29.98 in 10.0 mi Calm Calm - N/A   Mostly Cloudy
10:52 PM 66.9 °F 64.9 °F 93% 29.99 in 10.0 mi SE 3.5 mph - N/A   Mostly Cloudy
11:52 PM 66.9 °F 64.9 °F 93% 29.98 in 10.0 mi ESE 4.6 mph - N/A   Mostly Cloudy